Погода Жангизтобе

Погода Жангизтобе : погода сейчас, прогноз погоды и архив. Всё, что Вы хотите узнать о погоде Жангизтобе!

Хотите узнать прогноз погоды Жангизтобе? Тогда Вам сюда: Погода Жангизтобе

Поиск расширенной информации на нашем сайте:

Другие новости

Новости СМИ2

Главная страница сайта

Новости сайта

03.07.2017

Напоминаем, что на нашем специализированном сайте Метеоцентр.Азия вы можете получить высокодетализированные автоматические прогнозы погоды по пунктам России, СНГ и мира в авиационном формате (включающие направление и скорость ветра, видимость, явления погоды, количество и форму облачности, нижнюю и верхнюю границу облачности).

Рекомендуем: poselki-biznes-klassa купить

Погода Жангизтобе - сегодня

Время (UTC), дата Ветер
(°,м/с) 
Видим.   Явления Облачность Т
(°С)
Тd
(°С)
f(%) Тe
(°С)
Pmin
(гПа)
dP
(гПа)
Po
(мм)
O2
(г/м3)
Тmin Tmax R s Состояние
почвы
18 18.01.18 190 (Ю) н/о    ясно 
-15.9 -20.3 69 -22  1037.1  -0.2  733  315    -11.9       
21 18.01.18 150 (ЮВ) н/о    ясно 
-17.1 -20.9 72 -20  1037.3  -0.1  733  316           
00 19.01.18 240 (ЮЗ) н/о    ясно 
-16.3 -20.3 71 -16  1036.3  -0.7  732  315           
03 19.01.18 190 (Ю) 20000 м    ясно 
-16.5 -20.5 71 -20  1035.7  -0.6  732  315  -17.5      мокрый или
старый снег
50-90% 
06 19.01.18 150 (ЮВ) 20000 м    ясно 
-13.7 -19.1 64 -19  1035.1  732  312  -17.5         
09 19.01.18 180 (Ю) 20000 м    ясно 
-12 -18 61 -17  1034.6  -0.1  732  310           
12 19.01.18 190 (Ю) н/о    ясно 
-14.5 -19.1 68 -20  1035.8  0.6  732  313           
15 19.01.18 210 (ЮЗ) н/о    ясно 
-15.3 -19.9 68 -19  1037  733  314    -11.7       
18 19.01.18 200 (Ю) н/о    ясно 
-17.3 -20.7 75 -20  1037.2  -0.3  733  317    -11.7       
21 19.01.18 тихо ()   н/о    ясно 
-19.1 -22 78 -19  1038.5  0.8  733  319           
00 20.01.18 тихо ()   н/о    ясно 
-19.5 -22.4 78 -20  1038.8  0.2  733  320           
03 20.01.18 190 (Ю) 20000 м    ясно 
-21.3 -24.1 78 -24  1040.1  0.8  734  322  -21.7      мокрый или
старый снег
50-90% 
06 20.01.18 200 (Ю) 20000 м    8/0 средняя, верхняя 
[Ac lent|Ci fib]
-15.1 -18.5 75 -17  1038.6  734  314  -21.7         
09 20.01.18 300 (СЗ) 20000 м    8/0 средняя, верхняя 
[Ac lent|Ci fib]
-13.7 -17.7 72 -16  1038.3  0.1  734  313           
12 20.01.18 310 (СЗ) н/о    6/6 1000 м 
[Sc]
-15.5 -18.9 75 -18  1039  0.2  734  315           
15 20.01.18 170 (Ю) н/о    9/9 1000 м 
[Sc]
-17.4 -20.3 78 -20  1039.8  0.3  734  318    -13.4       
18 20.01.18 180 (Ю) н/о    10/10 1000 м 
[Sc]
-18.1 -20.7 80 -18  1039.8  -0.1  734  318    -13.4       
21 20.01.18 тихо ()   н/о    8/8 1000 м 
[Sc]
-19.5 -22.1 80 -20  1040  -0.2  734  320           
00 21.01.18 тихо ()   н/о  ливневой снег  10/10 1000 м кучево-дожд. 
[Cb calv]
-19.9 -22 83 -20  1040  -0.1  734  321           
03 21.01.18 тихо ()   20000 м  {снег}  10/0 средняя 
[Ac As]
-20.3 -22.9 80 -20  1040.8  0.7  735  321        равномерный
сухой снег
100% 
06 21.01.18 250 (З) 20000 м  {снег}  10/0 средняя 
[As op]
-19.1 -22 78 -19  1040.6  0.1  735  320  -2    0.4     
09 21.01.18 320 (СЗ) 20000 м    6/0 средняя, верхняя 
[Ac trans|Ci fib]
-17.1 -20.6 74 -17  1039.6  -0.5  734  317           
12 21.01.18 300 (СЗ) н/о    10/0 средняя 
[As op]
-20.5 -23.1 80 -21  1040.8  0.3  734  322           
15 21.01.18 280 (З) н/о  {снег}  10/0 средняя 
[As op]
-24.1 -26.6 80 -25  1042  0.3  735  326    -16.7  0.2     
18 21.01.18 260 (З) н/о  {снег}  10/0 средняя 
[As op]
-26.2 -28.5 81 -27  1042.2  -0.3  734  329    -16.7  0.2     
Время (UTC), дата Ветер
(°,м/с) 
Видим.   Явления Облачность Т
(°С)
Тd
(°С)
f(%) Тe
(°С)
Pmin
(гПа)
dP
(гПа)
Po
(мм)
O2
(г/м3)
Тmin Tmax R s Состояние
почвы

Для получения пояснительной информации подведите курсор к названию столбца.

ПОГОДА Жангизтобе - архив

Всё, что Вы хотите узнать о погоде Жангизтобе - удобно и подробно!

Выберите нужную дату (начиная с 1 января 2015* года) и нажмите кнопку "Найти".
Будут отображены архивные сводки погоды по пункту Жангизтобе, начиная с указанной даты.


Отображать данные в формате CSV (для использования в таблицах Excel)


Внимание! Наш архив погоды предназначен исключительно для личного некоммерческого использования в познавательных целях. Если Вам необходимы официальные справки о состоянии погоды (для производственных, юридических, коммерческих и т.п. целей), обращайтесь в органы Росгидромета.

*Примечание: данная дата относится к архиву по метеостанциям СССР (Россия, СНГ, Балтия).
Архив по метеостанциям Зарубежной Европы и Азии (кроме Китая) хранится 10 дней, по другим регионам земного шара (Китай, Африка, Америка, Австралия, Океания) - 1 день.

Жангизтобе - район местоположения метеостанции


Название, широта, долгота, высота метеостанции:
Жангизтобе 49.2°ш. 81.2°д. 455 м над ур. моря [Казахстан]

Дополнительная информация

В oтличие oт бoльшинства пoгoдных сайтoв мы публикуем пoдрoбную метеoинфoрмацию в детальнoм прoфессиoнальнoм фoрмате.

Характеристики температуры и влажнoсти вoздуха измеряются на высoте 2 м в тени вдали oт зданий и деревьев.
Скoрoсть ветра измеряется на высoте 10 м (на урoвне рoста челoвека скoрoсть ветра ниже в 1.5-2 раза). Если метеoстанция нахoдится в гoрoде или в лесу, тo скoрoсть ветра занижена на 2-4 м/с пo сравнению с oткрытым местoм. Скoрoсть ветра над акватoриями крупных рек и oзёр, а также на вершинах хoлмoв на 2-5 м/с выше, чем в oбычных услoвиях.
Атмoсфернoе давление в разных тoчках местнoсти мoжет значительнo oтличаться oт давления на метеoстанции, в зависимoсти oт услoвий рельефа (при пoдъёме на 10 м давление пoнижается примернo на 1 мм рт.ст.).